Showing default

IPERDRONE.0, 60520

Orbit data source: Space-Track

IPERDRONE.0, 60520 is a payload satellite owned by ASI (IT) in SSO that was launched on Fri, 16 Aug 2024 UTC via an FALCON 9 launch vehicle from the Air Force Western Test Range (AFWTR). Payload-class satellites include a variety of spacecraft equipped with specific instruments for various scientific and technological missions. These include communications satellites like Starlink; space stations such as the ISS; scientific satellites like the Hubble; Earth observation satellites from companies like Planet Labs, Umbra, and HawkEye 360; GPS; miniature CubeSats for education and research; and military/defense satellites.

Loading next visibility...
Identifier
60520, 2024-149BE
Orbit
SSO
Country
Flag of ITIT
Related business
Manufacturer
TERRAN/ARGOT
Mission
Operational Civil Technology
Bus & Motor
CUBESAT 6U, Unknown motor
Mass
12 kg wet, 12 kg dry
Launch date (UTC)
2024-08-16 (2 years ago)
Launch vehicle
FALCON 9
Launch site
Air Force Western Test Range (AFWTR)
Object type
Payload
Rocket body
Debris
Shape & HBR
Box + 2 Pan, 0.3 m
Radar Cross Section
0.104 m², Medium (>0.1 m² and < 1m²)

Expand to show TLE details & history
Last TLE update: 11 hours ago

TLE from 11 hours ago
0 IPERDRONE.0
1 60520U 24149BE  26144.83943390  .00060722  00000-0  66453-3 0  9993
2 60520  97.3770 236.9621 0001155 313.4841  46.6321 15.63109062 99264
Epoch: 2026-05-24T20:08Z
TLE epoch observation values (Epoch: 2026-05-24T20:08:47.088Z)
Latitude
-0.00009°
Longitude
52.33009°
Altitude
381.296 km
Speed
7.681 km/s
True Right ascension
15h 47m 50s
True Declination
0° 00' 00"
Sunlit
Object was in full shadow at epoch
Visualization orbit readout
Latitude
Unknown
Longitude
Unknown
Altitude
Unknown
Speed
Unknown
Apparent Right ascension
Unknown
Apparent Declination
Unknown
Sunlit
N/A
Visualization observer readout
Local Sidereal Time
16:31:41
Azimuth
Unknown
Elevation
Unknown
Doppler factor
Unknown
Orbital elements
Apogee altitude
376.37 km
Perigee altitude
374.81 km
Semi-major axis
6,753.727 km
Eccentricity
0.00012
Inclination
97.377°
RAAN
236.9621°
Arg. of periapsis
313.4841°
True anomaly
46.64172°
Mean anomaly
46.6321°
Eccentric anomaly
46.63691°
Mean motion
3.91046 °/min
Orbital period
92.06 mins
BSTAR
0.00066453
Loading maneuver chart data...
Computing Atmospheric mass density...
Loading historical data...
Loading historical data...
Loading historical data...
Loading historical data...
Loading historical data...
Loading historical data...
Loading historical data...

Documentation

Showing up to 5 results
|